DW5686 Weather Reports


Display with metric or nautical units.
time (UTC)temp
F
wind
direction
speed
MPH
gust
MPH
rain 1hr
in
rain 24hr
in
rain mn
in
humidity
%
barometer
mb
20260905002002 85 183 1.0 2.0 0.00 0.00 0.00 65 1014.3
20260905001503 85 183 0.0 2.0 0.00 0.00 0.00 64 1014.2
20260905001004 85 183 1.0 2.0 0.00 0.00 0.00 64 1014.3
20260905000504 86 183 0.0 2.0 0.00 0.00 0.00 64 1014.2
20260905000002 86 0 0.0 2.0 0.00 0.00 0.00 64 1014.2
20260904235503 86 183 0.0 2.0 0.00 0.00 0.00 63 1014.1
20260904235002 87 183 0.0 2.0 0.00 0.00 0.00 61 1014.0
20260904234503 87 183 1.0 2.0 0.00 0.00 0.00 61 1013.9
20260904234003 87 183 1.0 3.0 0.00 0.00 0.00 60 1013.9
20260904233502 88 183 1.0 3.0 0.00 0.00 0.00 59 1013.8
20260904233003 88 0 0.0 3.0 0.00 0.00 0.00 59 1013.8
20260904232502 88 183 0.0 3.0 0.00 0.00 0.00 58 1013.8
20260904232002 89 178 2.0 6.0 0.00 0.00 0.00 58 1013.8
20260904231523 89 146 1.0 6.0 0.00 0.00 0.00 57 1013.8
20260904231024 90 185 0.0 4.0 0.00 0.00 0.00 57 1013.7
20260904230524 90 146 2.0 2.0 0.00 0.00 0.00 57 1013.6
20260904230023 90 146 1.0 4.0 0.00 0.00 0.00 55 1013.7
20260904225502 91 146 1.0 6.0 0.00 0.00 0.00 53 1013.6
20260904225024 92 144 1.0 7.0 0.00 0.00 0.00 52 1013.6
20260904224503 92 176 3.0 8.0 0.00 0.00 0.00 50 1013.6
20260904224002 92 169 4.0 8.0 0.00 0.00 0.00 49 1013.5
20260904223504 93 139 2.0 7.0 0.00 0.00 0.00 49 1013.7
20260904223003 93 204 3.0 10.0 0.00 0.00 0.00 48 1013.6
20260904222502 93 174 3.0 10.0 0.00 0.00 0.00 48 1013.8
20260904222003 93 226 3.0 7.0 0.00 0.00 0.00 48 1013.8
20260904221503 94 202 2.0 7.0 0.00 0.00 0.00 48 1013.8
20260904221002 94 181 4.0 12.0 0.00 0.00 0.00 47 1013.9
20260904220503 94 164 7.0 12.0 0.00 0.00 0.00 46 1013.9
20260904220003 94 269 2.0 8.0 0.00 0.00 0.00 47 1013.8
20260904215502 94 177 5.0 8.0 0.00 0.00 0.00 46 1013.8
20260904215024 94 170 5.0 9.0 0.00 0.00 0.00 46 1013.8
20260904214503 94 169 5.0 9.0 0.00 0.00 0.00 46 1013.8
20260904214002 94 11 1.0 7.0 0.00 0.00 0.00 45 1013.9
20260904213503 94 167 3.0 8.0 0.00 0.00 0.00 45 1013.8
20260904213003 95 157 5.0 8.0 0.00 0.00 0.00 45 1013.8
20260904212503 96 152 4.0 10.0 0.00 0.00 0.00 46 1013.7
20260904212003 96 168 5.0 10.0 0.00 0.00 0.00 46 1013.6
20260904211503 96 205 1.0 9.0 0.00 0.00 0.00 44 1013.6
20260904211002 96 167 5.0 9.0 0.00 0.00 0.00 44 1013.7
20260904210504 96 237 2.0 6.0 0.00 0.00 0.00 44 1013.8
20260904210004 96 186 2.0 7.0 0.00 0.00 0.00 45 1013.9
20260904205502 97 136 3.0 7.0 0.00 0.00 0.00 44 1014.0
20260904205002 97 143 1.0 7.0 0.00 0.00 0.00 44 1014.2
20260904204503 97 158 5.0 8.0 0.00 0.00 0.00 44 1014.0
20260904204002 98 175 3.0 8.0 0.00 0.00 0.00 44 1014.1
20260904203503 97 266 2.0 6.0 0.00 0.00 0.00 45 1014.3
20260904203003 96 71 0.0 8.0 0.00 0.00 0.00 45 1014.0
20260904202503 97 143 3.0 12.0 0.00 0.00 0.00 44 1014.2
20260904202002 97 168 7.0 15.0 0.00 0.00 0.00 45 1014.2
20260904201504 97 160 7.0 15.0 0.00 0.00 0.00 45 1014.2
20260904201003 98 198 3.0 12.0 0.00 0.00 0.00 44 1014.2
20260904200503 98 204 3.0 11.0 0.00 0.00 0.00 46 1014.4
20260904200023 97 207 4.0 7.0 0.00 0.00 0.00 45 1014.4
20260904195503 97 209 4.0 10.0 0.00 0.00 0.00 45 1014.6
20260904195004 97 157 2.0 11.0 0.00 0.00 0.00 49 1014.7
20260904194524 97 180 3.0 12.0 0.00 0.00 0.00 48 1014.7
20260904194024 96 183 4.0 12.0 0.00 0.00 0.00 49 1014.9
20260904193523 96 160 5.0 12.0 0.00 0.00 0.00 48 1015.0
20260904193003 95 39 3.0 12.0 0.00 0.00 0.00 51 1015.0
20260904192503 95 172 3.0 12.0 0.00 0.00 0.00 50 1015.0
20260904192003 94 184 5.0 10.0 0.00 0.00 0.00 51 1015.1
20260904191502 95 168 6.0 10.0 0.00 0.00 0.00 50 1015.2
20260904191002 95 167 2.0 7.0 0.00 0.00 0.00 50 1015.3
20260904190524 95 220 2.0 5.0 0.00 0.00 0.00 51 1015.4
20260904190003 94 149 2.0 10.0 0.00 0.00 0.00 55 1015.4
20260904185503 93 165 2.0 10.0 0.00 0.00 0.00 56 1015.6
20260904185003 93 157 2.0 7.0 0.00 0.00 0.00 55 1015.6
20260904184504 93 136 2.0 10.0 0.00 0.00 0.00 53 1015.8
20260904184025 94 153 4.0 10.0 0.00 0.00 0.00 52 1015.7
20260904183504 95 159 2.0 7.0 0.00 0.00 0.00 51 1015.8
20260904183003 96 161 3.0 9.0 0.00 0.00 0.00 47 1015.8
20260904182503 96 205 4.0 9.0 0.00 0.00 0.00 47 1015.9
20260904182003 96 179 4.0 11.0 0.00 0.00 0.00 46 1016.0
20260904181502 96 167 6.0 11.0 0.00 0.00 0.00 46 1016.0
20260904181003 95 210 4.0 7.0 0.00 0.00 0.00 49 1016.1
20260904180503 95 132 2.0 10.0 0.00 0.00 0.00 48 1016.1
20260904180003 96 222 3.0 10.0 0.00 0.00 0.00 49 1016.3
20260904175525 96 176 3.0 6.0 0.00 0.00 0.00 50 1016.3
20260904175003 95 243 3.0 6.0 0.00 0.00 0.00 50 1016.3
20260904174503 94 26 3.0 6.0 0.00 0.00 0.00 48 1016.4
20260904174003 94 191 2.0 6.0 0.00 0.00 0.00 51 1016.4
20260904173525 95 157 3.0 6.0 0.00 0.00 0.00 49 1016.3
20260904173004 94 220 3.0 6.0 0.00 0.00 0.00 52 1016.4
20260904172525 94 178 2.0 6.0 0.00 0.00 0.00 52 1016.4
20260904172004 94 251 2.0 6.0 0.00 0.00 0.00 55 1016.5
20260904171503 94 166 2.0 7.0 0.00 0.00 0.00 52 1016.5
20260904171025 94 253 2.0 7.0 0.00 0.00 0.00 55 1016.5
20260904170525 93 237 2.0 7.0 0.00 0.00 0.00 56 1016.6
20260904170024 93 229 3.0 9.0 0.00 0.00 0.00 55 1016.6
20260904165503 93 170 5.0 9.0 0.00 0.00 0.00 55 1016.6
20260904165003 94 217 3.0 7.0 0.00 0.00 0.00 56 1016.8
20260904164523 94 19 2.0 6.0 0.00 0.00 0.00 51 1016.9
20260904164003 93 192 3.0 7.0 0.00 0.00 0.00 55 1016.9
20260904163504 92 245 3.0 7.0 0.00 0.00 0.00 58 1017.0
20260904163003 92 210 3.0 8.0 0.00 0.00 0.00 58 1017.0
20260904162503 91 185 4.0 8.0 0.00 0.00 0.00 58 1017.1
20260904162003 90 179 3.0 9.0 0.00 0.00 0.00 60 1017.2
20260904161503 90 199 4.0 9.0 0.00 0.00 0.00 60 1017.3
20260904161003 90 219 3.0 7.0 0.00 0.00 0.00 59 1017.5
20260904160504 90 200 4.0 8.0 0.00 0.00 0.00 59 1017.5
20260904160003 91 216 4.0 8.0 0.00 0.00 0.00 59 1017.5
20260904155503 91 241 2.0 7.0 0.00 0.00 0.00 60 1017.5
20260904155003 91 246 2.0 11.0 0.00 0.00 0.00 60 1017.6
20260904154503 90 201 4.0 12.0 0.00 0.00 0.00 60 1017.6
20260904154024 90 205 5.0 12.0 0.00 0.00 0.00 59 1017.5
20260904153504 90 162 2.0 7.0 0.00 0.00 0.00 62 1017.6
20260904153003 89 128 2.0 7.0 0.00 0.00 0.00 62 1017.7
20260904152503 89 187 2.0 5.0 0.00 0.00 0.00 63 1017.6
20260904152004 89 229 3.0 7.0 0.00 0.00 0.00 61 1017.7
20260904151524 89 197 2.0 7.0 0.00 0.00 0.00 64 1017.7
20260904151003 88 87 1.0 7.0 0.00 0.00 0.00 67 1017.7
20260904150504 88 212 2.0 9.0 0.00 0.00 0.00 65 1017.7
20260904150004 87 242 3.0 10.0 0.00 0.00 0.00 67 1017.6
20260904145503 87 228 3.0 10.0 0.00 0.00 0.00 67 1017.6
20260904145003 87 223 3.0 9.0 0.00 0.00 0.00 67 1017.7
20260904144503 87 223 4.0 9.0 0.00 0.00 0.00 67 1017.6
20260904144024 86 203 3.0 8.0 0.00 0.00 0.00 68 1017.7
20260904143524 85 228 4.0 11.0 0.00 0.00 0.00 68 1017.6
20260904143004 85 211 5.0 11.0 0.00 0.00 0.00 69 1017.6
20260904142504 84 220 6.0 12.0 0.00 0.00 0.00 70 1017.6
20260904142004 84 223 4.0 13.0 0.00 0.00 0.00 70 1017.5
20260904141504 85 210 8.0 13.0 0.00 0.00 0.00 69 1017.4
20260904141003 85 205 2.0 9.0 0.00 0.00 0.00 70 1017.4
20260904140525 84 202 4.0 9.0 0.00 0.00 0.00 70 1017.5
20260904140003 84 225 2.0 12.0 0.00 0.00 0.00 72 1017.4
20260904135503 84 221 5.0 12.0 0.00 0.00 0.00 72 1017.4
20260904135003 83 234 2.0 12.0 0.00 0.00 0.00 72 1017.5
20260904134504 83 185 4.0 12.0 0.00 0.00 0.00 72 1017.5
20260904134004 83 178 1.0 11.0 0.00 0.00 0.00 76 1017.4
20260904133503 82 225 4.0 11.0 0.00 0.00 0.00 75 1017.5
20260904133004 82 182 3.0 7.0 0.00 0.00 0.00 75 1017.4
20260904132504 82 232 2.0 12.0 0.00 0.00 0.00 77 1017.4
20260904132003 81 226 4.0 12.0 0.00 0.00 0.00 76 1017.4
20260904131503 81 181 4.0 9.0 0.00 0.00 0.00 78 1017.4
20260904131024 81 184 2.0 9.0 0.00 0.00 0.00 78 1017.4
20260904130503 80 156 3.0 11.0 0.00 0.00 0.00 79 1017.4
20260904130004 80 222 5.0 12.0 0.00 0.00 0.00 81 1017.4
20260904125503 79 213 5.0 12.0 0.00 0.00 0.00 81 1017.5
20260904125004 79 223 4.0 9.0 0.00 0.00 0.00 82 1017.5
20260904124504 78 210 4.0 9.0 0.00 0.00 0.00 82 1017.5
20260904124003 78 237 3.0 8.0 0.00 0.00 0.00 83 1017.6
20260904123503 78 212 3.0 10.0 0.00 0.00 0.00 83 1017.6
20260904123003 77 210 4.0 10.0 0.00 0.00 0.00 83 1017.7
20260904122503 77 215 3.0 5.0 0.00 0.00 0.00 84 1017.7
20260904122003 77 171 1.0 5.0 0.00 0.00 0.00 86 1017.8
20260904121504 76 167 2.0 6.0 0.00 0.00 0.00 86 1017.6
20260904121003 76 152 2.0 6.0 0.00 0.00 0.00 86 1017.7
20260904120504 76 220 3.0 6.0 0.00 0.00 0.00 86 1017.7
20260904120004 76 210 1.0 3.0 0.00 0.00 0.00 87 1017.7
20260904115525 75 210 1.0 6.0 0.00 0.00 0.00 87 1017.5
20260904115003 75 211 1.0 6.0 0.00 0.00 0.00 88 1017.4
20260904114524 75 178 1.0 5.0 0.00 0.00 0.00 88 1017.4
20260904114003 75 0 0.0 5.0 0.00 0.00 0.00 88 1017.4
20260904113503 74 180 2.0 6.0 0.00 0.00 0.00 89 1017.3
20260904113004 74 156 2.0 6.0 0.00 0.00 0.00 89 1017.3
20260904112503 74 164 3.0 6.0 0.00 0.00 0.00 89 1017.3
20260904112003 74 0 0.0 2.0 0.00 0.00 0.00 89 1017.3
20260904111504 74 165 1.0 2.0 0.00 0.00 0.00 89 1017.2
20260904111004 74 165 0.0 2.0 0.00 0.00 0.00 89 1017.2
20260904110525 74 165 1.0 4.0 0.00 0.00 0.00 89 1017.0
20260904110025 74 165 1.0 4.0 0.00 0.00 0.00 88 1017.0
20260904105524 74 211 0.0 4.0 0.00 0.00 0.00 88 1016.9
20260904105003 74 211 0.0 4.0 0.00 0.00 0.00 88 1016.9
20260904104524 74 243 1.0 2.0 0.00 0.00 0.00 88 1016.8
20260904104003 74 143 1.0 4.0 0.00 0.00 0.00 88 1016.8
20260904103504 74 171 2.0 4.0 0.00 0.00 0.00 88 1016.6
20260904103025 74 254 1.0 6.0 0.00 0.00 0.00 88 1016.8
20260904102503 74 254 1.0 6.0 0.00 0.00 0.00 88 1016.7
20260904102003 74 210 0.0 3.0 0.00 0.00 0.00 88 1016.7
20260904101503 74 210 2.0 3.0 0.00 0.00 0.00 88 1016.8
20260904101004 74 185 1.0 3.0 0.00 0.00 0.00 88 1016.7
20260904100503 74 156 1.0 2.0 0.00 0.00 0.00 88 1016.8
20260904100003 74 0 0.0 2.0 0.00 0.00 0.00 88 1016.6
20260904095503 74 156 0.0 2.0 0.00 0.00 0.00 88 1016.7
20260904095024 74 156 1.0 2.0 0.00 0.00 0.00 87 1016.7
20260904094503 75 0 0.0 2.0 0.00 0.00 0.00 87 1016.6
20260904094003 75 156 1.0 3.0 0.00 0.00 0.00 87 1016.6
20260904093504 75 0 0.0 5.0 0.00 0.00 0.00 87 1016.5
20260904093003 75 156 2.0 6.0 0.00 0.00 0.00 86 1016.6
20260904092504 75 155 3.0 6.0 0.00 0.00 0.00 87 1016.5
20260904092003 75 181 2.0 4.0 0.00 0.00 0.00 87 1016.5
20260904091503 75 181 2.0 3.0 0.00 0.00 0.00 87 1016.5
20260904091025 75 181 2.0 2.0 0.00 0.00 0.00 87 1016.5
20260904090504 75 181 0.0 2.0 0.00 0.00 0.00 87 1016.4
20260904090003 75 181 0.0 4.0 0.00 0.00 0.00 87 1016.5
20260904085503 75 0 0.0 4.0 0.00 0.00 0.00 87 1016.4
20260904085003 75 184 2.0 5.0 0.00 0.00 0.00 86 1016.4
20260904084503 75 176 2.0 5.0 0.00 0.00 0.00 86 1016.4
20260904084003 75 200 1.0 3.0 0.00 0.00 0.00 86 1016.3
20260904083504 75 200 1.0 2.0 0.00 0.00 0.00 86 1016.3
20260904083025 75 253 0.0 1.0 0.00 0.00 0.00 86 1016.4
20260904082504 75 253 0.0 2.0 0.00 0.00 0.00 86 1016.3
20260904082025 75 253 0.0 2.0 0.00 0.00 0.00 86 1016.3
20260904081524 76 253 0.0 3.0 0.00 0.00 0.00 86 1016.3
20260904081025 76 253 1.0 3.0 0.00 0.00 0.00 84 1016.4
20260904080504 76 253 0.0 2.0 0.00 0.00 0.00 84 1016.4
20260904080004 76 253 0.0 2.0 0.00 0.00 0.00 84 1016.3
20260904075503 76 253 0.0 2.0 0.00 0.00 0.00 84 1016.4
20260904075003 76 253 0.0 2.0 0.00 0.00 0.00 84 1016.4
20260904074504 76 253 0.0 2.0 0.00 0.00 0.00 83 1016.3
20260904074024 76 269 0.0 2.0 0.00 0.00 0.00 83 1016.4
20260904073525 76 269 0.0 2.0 0.00 0.00 0.00 83 1016.4
20260904073004 76 0 0.0 4.0 0.00 0.00 0.00 83 1016.4
20260904072504 77 269 0.0 4.0 0.00 0.00 0.00 83 1016.4
20260904072003 77 0 0.0 2.0 0.00 0.00 0.00 82 1016.4
20260904071504 77 153 1.0 5.0 0.00 0.00 0.00 82 1016.5
20260904071023 77 153 2.0 5.0 0.00 0.00 0.00 82 1016.4
20260904070502 77 153 2.0 3.0 0.00 0.00 0.00 82 1016.3
20260904070002 77 209 2.0 3.0 0.00 0.00 0.00 82 1016.4
20260904065503 77 209 1.0 3.0 0.00 0.00 0.00 82 1016.4
20260904065002 77 0 0.0 1.0 0.00 0.00 0.00 81 1016.6
20260904064524 77 0 0.0 2.0 0.00 0.00 0.00 81 1016.7
20260904064023 77 209 0.0 3.0 0.00 0.00 0.00 81 1016.6
20260904063502 78 209 1.0 3.0 0.00 0.00 0.00 81 1016.7
20260904063002 78 209 0.0 3.0 0.00 0.00 0.00 79 1016.6
20260904062502 78 209 1.0 3.0 0.00 0.00 0.00 79 1016.8
20260904062002 78 209 0.0 5.0 0.00 0.00 0.00 79 1016.8
20260904061502 78 209 1.0 5.0 0.00 0.00 0.00 78 1016.8
20260904061003 78 188 1.0 5.0 0.00 0.00 0.00 78 1016.9
20260904060502 79 186 1.0 2.0 0.00 0.00 0.00 78 1016.9
20260904060023 79 186 1.0 3.0 0.00 0.00 0.00 77 1016.9
20260904055503 79 186 0.0 6.0 0.00 0.00 0.00 77 1016.9
20260904055002 79 195 2.0 7.0 0.00 0.00 0.00 76 1017.0
20260904054502 79 150 3.0 7.0 0.00 0.00 0.00 76 1017.0
20260904054002 80 153 2.0 6.0 0.00 0.00 0.00 76 1017.1
20260904053503 80 134 3.0 6.0 0.00 0.00 0.00 76 1017.0
20260904053024 80 222 1.0 4.0 0.00 0.00 0.00 76 1017.0
20260904052502 80 169 2.0 4.0 0.00 0.00 0.00 76 1017.1
20260904052002 80 195 2.0 4.0 0.00 0.00 0.00 76 1017.1
20260904051502 80 168 2.0 4.0 0.00 0.00 0.00 76 1017.2
20260904051002 80 129 2.0 5.0 0.00 0.00 0.00 76 1017.2
20260904050503 80 125 1.0 6.0 0.00 0.00 0.00 76 1017.2
20260904050023 80 157 1.0 6.0 0.00 0.00 0.00 76 1017.2
20260904045503 81 168 2.0 6.0 0.00 0.00 0.00 75 1017.2
20260904045002 81 125 2.0 5.0 0.00 0.00 0.00 75 1017.3
20260904044502 81 225 2.0 7.0 0.00 0.00 0.00 75 1017.3
20260904044002 81 175 2.0 7.0 0.00 0.00 0.00 74 1017.3
20260904043503 81 146 3.0 7.0 0.00 0.00 0.00 74 1017.2
20260904043003 81 153 2.0 7.0 0.00 0.00 0.00 75 1017.3
20260904042502 81 155 2.0 7.0 0.00 0.00 0.00 76 1017.3
20260904042002 81 166 2.0 7.0 0.00 0.00 0.00 77 1017.2
20260904041524 81 137 2.0 6.0 0.00 0.00 0.00 76 1017.2
20260904041003 81 131 2.0 6.0 0.00 0.00 0.00 76 1017.1
20260904040503 82 127 1.0 6.0 0.00 0.00 0.00 75 1017.2
20260904040002 82 152 3.0 7.0 0.00 0.00 0.00 74 1017.1
20260904035502 82 167 4.0 7.0 0.00 0.00 0.00 74 1017.2
20260904035002 82 166 2.0 7.0 0.00 0.00 0.00 74 1017.2
20260904034502 82 159 3.0 7.0 0.00 0.00 0.00 74 1017.2
20260904034002 82 156 4.0 7.0 0.00 0.00 0.00 75 1017.2
20260904033502 81 160 4.0 7.0 0.00 0.00 0.00 76 1017.3
20260904033002 81 169 2.0 6.0 0.00 0.00 0.00 77 1017.4
20260904032503 81 156 3.0 5.0 0.00 0.00 0.00 77 1017.4
20260904032003 81 150 2.0 7.0 0.00 0.00 0.00 77 1017.3
20260904031523 81 158 3.0 7.0 0.00 0.00 0.00 77 1017.3
20260904031002 81 164 2.0 5.0 0.00 0.00 0.00 77 1017.3
20260904030502 81 165 2.0 5.0 0.00 0.00 0.00 77 1017.3
20260904030002 81 165 0.0 2.0 0.00 0.00 0.00 77 1017.3
20260904025503 81 0 0.0 1.0 0.00 0.00 0.00 77 1017.4
20260904025003 81 0 0.0 0.0 0.00 0.00 0.00 76 1017.5
20260904024503 82 0 0.0 2.0 0.00 0.00 0.00 76 1017.4
20260904024002 82 0 0.0 2.0 0.00 0.00 0.00 75 1017.5
20260904023502 82 165 0.0 2.0 0.00 0.00 0.00 75 1017.5
20260904023002 82 165 1.0 2.0 0.00 0.00 0.00 74 1017.4
20260904022524 82 165 0.0 2.0 0.00 0.00 0.00 74 1017.4
20260904022003 82 165 0.0 2.0 0.00 0.00 0.00 74 1017.5
20260904021502 82 165 2.0 2.0 0.00 0.00 0.00 72 1017.5
20260904021003 82 165 1.0 2.0 0.00 0.00 0.00 72 1017.6
20260904020504 82 165 1.0 2.0 0.00 0.00 0.00 72 1017.5
20260904020002 82 165 1.0 2.0 0.00 0.00 0.00 71 1017.3
20260904015502 82 0 0.0 0.0 0.00 0.00 0.00 71 1017.2
20260904015002 82 0 0.0 0.0 0.00 0.00 0.00 71 1017.2
20260904014502 83 0 0.0 2.0 0.00 0.00 0.00 71 1017.2
20260904014002 83 0 0.0 2.0 0.00 0.00 0.00 70 1017.1
20260904013502 83 165 1.0 2.0 0.00 0.00 0.00 69 1017.1
20260904013002 83 0 0.0 0.0 0.00 0.00 0.00 69 1017.0
20260904012502 83 0 0.0 0.0 0.00 0.00 0.00 69 1016.9
20260904012024 84 0 0.0 1.0 0.00 0.00 0.00 68 1016.8
20260904011503 84 0 0.0 2.0 0.00 0.00 0.00 68 1016.6
20260904011002 84 0 0.0 2.0 0.00 0.00 0.00 67 1016.5
20260904010502 84 165 1.0 2.0 0.00 0.00 0.00 65 1016.4
20260904010024 85 165 0.0 2.0 0.00 0.00 0.00 65 1016.4
20260904005524 85 165 0.0 1.0 0.00 0.00 0.00 64 1016.3
20260904005002 85 0 0.0 0.0 0.00 0.00 0.00 64 1016.3
20260904004523 85 0 0.0 2.0 0.00 0.00 0.00 64 1016.1
20260904004003 85 165 0.0 2.0 0.00 0.00 0.00 64 1016.1
20260904003503 85 165 0.0 2.0 0.00 0.00 0.00 64 1016.1
20260904003002 85 0 0.0 0.0 0.00 0.00 0.00 64 1016.1
20260904002502 85 0 0.0 1.0 0.00 0.00 0.00 64 1016.1